{"data":{"norad_id":66316,"intl_designator":"2025-252A","name":"QPS-SAR-14 (YACHIHOKO-I)","alt_names":[],"object_type":"PAYLOAD","status":"ACTIVE","operator":null,"country":"JPN","launch_date":"2025-11-05","launch_site_code":"RLLB","launch_vehicle":null,"mission":null,"orbit_class":"UNKNOWN","rcs_meters":null,"size_class":null,"mass_kg":null,"dimensions":null,"purposes":[],"wikipedia_slug":null,"has_3d_model":false,"image_url":null,"decayed_at":null,"tle_current":{"epoch":"2026-05-25T00:23:54.462048Z","epoch_age_seconds":74437,"freshness":"FRESH","line1":"1 66316U 25252A   26145.01660257  .00003933  00000+0  32989-3 0  9994","line2":"2 66316  42.0044 259.1860 0005005 112.3607 247.7749 14.99473720 30031","mean_motion":14.9947372,"eccentricity":0.0005005,"inclination_deg":42.0044,"raan_deg":259.186,"arg_perigee_deg":112.3607,"mean_anomaly_deg":247.7749,"bstar":0.00032989,"rev_number":3003,"period_min":96.033693741562,"perigee_km":565.04447702137,"apogee_km":571.99808195914,"semimajor_km":6946.6582794903,"source":"CELESTRAK","updated_at":"2026-05-25T13:38:06.134215Z"}}}